Stanley, ID

12:54 PM MDT on July 25, 2016 (GMT -0600)
Stanley

Weather History for KSNT - November, 2013

Change the Weather History Date:

Thursday, November 7, 2013

  Actual Average Record
Temperature  
Mean Temperature 38 °F 28 °F  
Max Temperature 45 °F 41 °F 61 °F (1999)
Min Temperature 30 °F 16 °F -8 °F (2003)
Degree Days  
Heating Degree Days 27 37  
Month to date heating degree days 269 246  
Since 1 July heating degree days 1897 2110  
Cooling Degree Days 0 0  
Month to date cooling degree days 0 0  
Year to date cooling degree days 19 3  
Moisture  
Dew Point 32 °F    
Average Humidity 90    
Maximum Humidity 100    
Minimum Humidity 79    
Precipitation  
Precipitation 0.61 in 0.08 in 0.61 in (2013)
Month to date precipitation 0.89 0.64  
Year to date precipitation 11.76 14.32  
Sea Level Pressure  
Sea Level Pressure 30.06 in    
Wind  
Wind Speed 5 mph (SSE)    
Max Wind Speed 16 mph    
Max Gust Speed 27 mph    
T = Trace of Precipitation, MM = Missing Value Source: NWS Daily Summary

Daily Weather History Graph

Daily Weather History Graph

Search for Another Location

Airport or City:

Trip Planner

Search our weather history database for the weather conditions in past years. The results will help you decide how hot, cold, wet, or windy it might be!

Date:

Astronomy

Nov. 07, 2013 Rise Set
Actual Time 7:24 AM MST 5:21 PM MST
Civil Twilight 6:54 AM MST 5:51 PM MST
Nautical Twilight 6:19 AM MST 6:26 PM MST
Astronomical Twilight 5:45 AM MST 7:00 PM MST
Moon 11:38 AM MST (11/7) 9:36 PM MST (11/7)
Length of Visible Light 10h 57m
Length of Day
9h 56m
Waxing Crescent, 23% of the Moon is Illuminated
Nov 7
Waxing Crescent
Nov 9
First Quarter
Nov 17
Full
Nov 25
Last Quarter
Dec 2
New

Hourly Weather History & Observations

Time (MST) Temp. Windchill Dew Point Humidity Pressure Visibility Wind Dir Wind Speed Gust Speed Precip Events Conditions
12:51 AM 30.0 °F - 27.0 °F 88% 30.33 in - Calm Calm - N/A   Unknown
1:51 AM 30.0 °F - 28.9 °F 96% 30.32 in - Calm Calm - 0.01 in   Unknown
2:51 AM 30.0 °F - 28.9 °F 96% 30.31 in - Calm Calm - 0.02 in   Unknown
3:51 AM 30.0 °F - 28.9 °F 96% 30.29 in - Calm Calm - 0.02 in   Unknown
4:51 AM 30.0 °F - 28.9 °F 96% 30.27 in - Calm Calm - N/A   Unknown
5:51 AM 30.0 °F - 28.9 °F 96% 30.22 in - Calm Calm - N/A   Unknown
6:51 AM 30.0 °F - 30.0 °F 100% 30.22 in - Calm Calm - N/A   Unknown
7:51 AM 30.9 °F - 28.9 °F 92% 30.19 in - Calm Calm - N/A   Unknown
8:51 AM 32.0 °F - 30.9 °F 96% 30.17 in - Calm Calm - N/A   Unknown
9:51 AM 37.9 °F 33.5 °F 34.0 °F 86% 30.13 in - SSE 5.8 mph - N/A   Unknown
10:51 AM 37.9 °F 30.5 °F 35.1 °F 89% 30.11 in - SE 11.5 mph - 0.02 in   Unknown
11:51 AM 37.9 °F 30.9 °F 35.1 °F 89% 30.08 in - SE 10.4 mph - 0.02 in   Unknown
12:51 PM 37.0 °F 29.8 °F 35.1 °F 93% 30.06 in - SE 10.4 mph 21.9 mph 0.05 in   Unknown
1:51 PM 37.9 °F 31.5 °F 36.0 °F 93% 29.99 in - SSE 9.2 mph 18.4 mph 0.03 in   Unknown
2:51 PM 39.9 °F 32.9 °F 36.0 °F 86% 29.94 in - SSE 11.5 mph 19.6 mph N/A   Unknown
3:51 PM 41.0 °F 34.7 °F 36.0 °F 82% 29.89 in - SSE 10.4 mph - N/A   Unknown
4:51 PM 37.9 °F 33.5 °F 36.0 °F 93% 29.91 in - South 5.8 mph - 0.02 in   Unknown
5:51 PM 37.0 °F 31.0 °F 35.1 °F 93% 29.88 in - SSE 8.1 mph - 0.07 in   Unknown
6:51 PM 37.0 °F 31.0 °F 34.0 °F 89% 29.84 in - SE 8.1 mph 18.4 mph 0.01 in   Unknown
7:51 PM 34.0 °F 28.8 °F 33.1 °F 96% 29.88 in - SSE 5.8 mph - 0.12 in   Unknown
8:51 PM 34.0 °F 28.8 °F 33.1 °F 96% 29.86 in - ESE 5.8 mph - 0.06 in   Unknown
9:51 PM 34.0 °F 31.0 °F 32.0 °F 92% 29.87 in - Variable 3.5 mph - 0.12 in   Unknown
10:51 PM 35.1 °F 27.9 °F 30.9 °F 85% 29.87 in - WNW 9.2 mph 25.3 mph 0.03 in   Unknown
11:51 PM 36.0 °F 33.3 °F 27.0 °F 70% 29.88 in - Variable 3.5 mph - 0.01 in   Unknown